Aeroporto :
LOGIN :

Iscrizione | Disclaimer

   EN    FR    IT 

 










Sommario :    VFR   VFR Marginale   IFR   IFR Intensivo   IFR Molto Intensivo
Visibilità : 
Base nubi : 
>= 8 km
>= 3000ft
5 / 8 km
1000 / 3000 ft
1500m / 5 km
500 / 1000 ft
800 / 1500m
200 / 500 ft
< 800m
< 200 ft
Simboli :   Temporali  Nebbia  Neve Forte  Precipitazioni Forti  Vento > 20 kt
SIGMETs :   Varie  Temporali  Ghiacco  Turbolenza  Onda orograficha  Ceneri Vulcaniche






- Altitudine del aeroporto : 1416 ft
- Codice IATA : ZRH


LSZH - Zurich

ULTIMO METAR :
  • 062120Z 19001KT CAVOK 08/02 Q1026 NOSIG

METARs OBSOLETI :
  • 062050Z VRB01KT CAVOK 10/01 Q1026 NOSIG
  • 062020Z VRB01KT CAVOK 11/02 Q1026 NOSIG
  • 061950Z VRB01KT CAVOK 12/02 Q1025 NOSIG
  • 061920Z 03002KT CAVOK 12/02 Q1025 NOSIG
  • 061850Z 05003KT CAVOK 14/03 Q1024 NOSIG

TAF TAF LSZH
Valido dal 06 a 21 ore il 08 a 03 ore UTC


062025Z 0621/0803 VRB02KT CAVOK TX22/0715Z TN02/0705Z
BECMG 0709/0712 05010KT
BECMG 0716/0719 VRB03KT
ATIS : +41 43 816 2295 (DEP) +41 43 816 2294 (ARR)



MetMap, La meteo Aeronautica in un colpo d'occhio ! - Copyright ORBIFLY Dicembre 2007 - Disclaimer

ORBIFLY MET'MAP TEAM :

Programmazione e sviluppo : Alexandra Zaïnal
Concezione : Baudouin d'Aumeries
Aiuto per la programmazione : Marc-Olivier Méhu
Supporto tecnico e logistico : Manuel Goepfert
Aiuto per la traduzione : Arnaldo La Scala

Contatto : metmap@orbifly.com




FONTI E CREDITI :

   NOAA